Bao An Cheng 69 — BVBD5 — position and weather

sailwx.info

Track history (hours):
 
Tides and Currents Weather Stations Pressure Air Temp Water Temp Dewpoint Dewpoint Depression Visibility Wind Speed Wind Dir Waves Ship Positions

Bao An Cheng 69

Last reported at 2014-Nov-25 22:23 UTC. Time now 2014-Nov-25 23:14 UTC.
Position N 30°34' E 121°10'.

Length 121 m; draft 4.8 m.

MMSI: 412703090.

Date/timePositionNaut miles runAvg speedWind from/ knotsBaromVisibWave heightAir tempDewpointWater temp
2014-Nov-25 22:23N 30°34' E 121°10'0 0.0
2014-Nov-25 21:32N 30°34' E 121°10'0 0.0
2014-Nov-25 20:32N 30°34' E 121°10'0 0.2
2014-Nov-25 19:23N 30°34' E 121°10'3 3.1
2014-Nov-25 18:33N 30°34' E 121°13'1111.2
2014-Nov-25 17:34N 30°33' E 121°26'1312.0
2014-Nov-25 16:28N 30°24' E 121°38'1212.6
2014-Nov-25 15:33N 30°16' E 121°46'1312.1
2014-Nov-25 14:30N 30°05' E 121°54'1010.1
2014-Nov-25 13:33N 29°57' E 122°00'10 9.6
2014-Nov-25 12:33N 29°54' E 122°11'9 8.6
2014-Nov-25 11:34N 29°47' E 122°17'6 6.4
2014-Nov-25 10:34N 29°41' E 122°20'7 6.9
2014-Nov-25 09:32N 29°34' E 122°20'7 6.8
2014-Nov-25 08:26N 29°27' E 122°19'295 8.7
2014-Nov-23 22:22N 25°09' E 119°39'53 1.7
2014-Nov-22 14:29N 24°49' E 118°44'0 0.0
2014-Nov-22 13:29N 24°49' E 118°44'0 0.0
2014-Nov-22 12:29N 24°49' E 118°44'0 0.0
2014-Nov-22 11:23N 24°49' E 118°44'0 0.0
2014-Nov-22 10:23N 24°49' E 118°44'0 0.0
2014-Nov-22 09:29N 24°49' E 118°44'0 0.0
2014-Nov-22 08:29N 24°49' E 118°44'0 0.0
2014-Nov-22 07:32N 24°49' E 118°44'3 3.1
2014-Nov-22 06:33N 24°48' E 118°47'7 7.0
2014-Nov-22 05:33N 24°49' E 118°55'333 9.5
2014-Nov-20 18:29N 29°25' E 122°23'1010.7
2014-Nov-20 17:33N 29°35' E 122°27'1110.4
2014-Nov-20 16:32N 29°45' E 122°32'10 9.6
2014-Nov-20 15:30N 29°54' E 122°35'10 9.2
2014-Nov-20 14:26N 30°04' E 122°35'9 8.7
2014-Nov-20 13:25N 30°13' E 122°36'386 9.2
2014-Nov-18 19:30N 36°39' E 122°46'8 8.8
2014-Nov-18 18:33N 36°47' E 122°47'9 8.9
2014-Nov-18 17:32N 36°56' E 122°47'9 9.1
2014-Nov-18 16:33N 37°05' E 122°47'10 9.5
2014-Nov-18 15:29N 37°15' E 122°46'14 9.7
2014-Nov-18 14:04N 37°29' E 122°44'610.8
2014-Nov-18 13:33N 37°33' E 122°39'1110.5
2014-Nov-18 12:33N 37°39' E 122°29'  
Track history (hours):
 
Tides and Currents Weather Stations Pressure Air Temp Water Temp Dewpoint Dewpoint Depression Visibility Wind Speed Wind Dir Waves Ship Positions

Bao An Cheng 69

Last reported at 2014-Nov-25 22:23 UTC. Time now 2014-Nov-25 23:14 UTC.
Position N 30°34' E 121°10'.

Length 121 m; draft 4.8 m.

MMSI: 412703090.

Date/timePositionNaut miles runAvg speedWind from/ knotsBaromVisibWave heightAir tempDewpointWater temp
2014-Nov-25 22:23N 30°34' E 121°10'0 0.0
2014-Nov-25 21:32N 30°34' E 121°10'0 0.0
2014-Nov-25 20:32N 30°34' E 121°10'0 0.2
2014-Nov-25 19:23N 30°34' E 121°10'3 3.1
2014-Nov-25 18:33N 30°34' E 121°13'1111.2
2014-Nov-25 17:34N 30°33' E 121°26'1312.0
2014-Nov-25 16:28N 30°24' E 121°38'1212.6
2014-Nov-25 15:33N 30°16' E 121°46'1312.1
2014-Nov-25 14:30N 30°05' E 121°54'1010.1
2014-Nov-25 13:33N 29°57' E 122°00'10 9.6
2014-Nov-25 12:33N 29°54' E 122°11'9 8.6
2014-Nov-25 11:34N 29°47' E 122°17'6 6.4
2014-Nov-25 10:34N 29°41' E 122°20'7 6.9
2014-Nov-25 09:32N 29°34' E 122°20'7 6.8
2014-Nov-25 08:26N 29°27' E 122°19'295 8.7
2014-Nov-23 22:22N 25°09' E 119°39'53 1.7
2014-Nov-22 14:29N 24°49' E 118°44'0 0.0
2014-Nov-22 13:29N 24°49' E 118°44'0 0.0
2014-Nov-22 12:29N 24°49' E 118°44'0 0.0
2014-Nov-22 11:23N 24°49' E 118°44'0 0.0
2014-Nov-22 10:23N 24°49' E 118°44'0 0.0
2014-Nov-22 09:29N 24°49' E 118°44'0 0.0
2014-Nov-22 08:29N 24°49' E 118°44'0 0.0
2014-Nov-22 07:32N 24°49' E 118°44'3 3.1
2014-Nov-22 06:33N 24°48' E 118°47'7 7.0
2014-Nov-22 05:33N 24°49' E 118°55'333 9.5
2014-Nov-20 18:29N 29°25' E 122°23'1010.7
2014-Nov-20 17:33N 29°35' E 122°27'1110.4
2014-Nov-20 16:32N 29°45' E 122°32'10 9.6
2014-Nov-20 15:30N 29°54' E 122°35'10 9.2
2014-Nov-20 14:26N 30°04' E 122°35'9 8.7
2014-Nov-20 13:25N 30°13' E 122°36'386 9.2
2014-Nov-18 19:30N 36°39' E 122°46'8 8.8
2014-Nov-18 18:33N 36°47' E 122°47'9 8.9
2014-Nov-18 17:32N 36°56' E 122°47'9 9.1
2014-Nov-18 16:33N 37°05' E 122°47'10 9.5
2014-Nov-18 15:29N 37°15' E 122°46'14 9.7
2014-Nov-18 14:04N 37°29' E 122°44'610.8
2014-Nov-18 13:33N 37°33' E 122°39'1110.5
2014-Nov-18 12:33N 37°39' E 122°29'  

Dump ship's entire track history